Location: Bakov nad Jizerou
(50.4784°N, 14.9394°E)
Time: 06:51:12
(UTC+00:00)

Cosmos 1110 Rocket - Pass Details

Date: 16 June 2021
Orbit: 752 x 782 km, 74.0° (Epoch: 28 July)

Event Time Altitude Azimuth Distance (km) Brightness Sun altitude
Exits shadow 20:34:51 - 190° (S) 2,959 6.6 -9.4°
Reaches altitude 10° 20:36:37 10° 187° (S) 2,273 6.0 -9.5°
Maximum altitude 20:41:40 60° 109° (ESE) 864 4.1 -10.0°
Drops below altitude 10° 20:46:48 10° 30° (NNE) 2,304 6.9 -10.4°
Sets 20:49:13 0° 27° (NNE) 3,239 7.7 -10.6°
